EFHKFMI Weather Reports


time (UTC)temp
F
wind
direction
speed
knots
gust
knots
rain 1hr
in
rain 24hr
in
rain mn
in
humidity
%
barometer
mb
20260503212707 52 304 2.6 4.3 0.00 0.00 0.00 75 1007.3
20260503210708 51 326 2.6 5.2 0.00 0.00 0.00 79 1007.3
20260503204708 52 330 2.6 2.6 0.00 0.00 0.00 74 1007.4
20260503202707 52 316 1.7 3.5 0.00 0.00 0.00 82 1007.5
20260503200707 52 337 3.5 5.2 0.00 0.00 0.00 74 1007.6
20260503194707 52 331 1.7 3.5 0.00 0.00 0.00 84 1007.6
20260503192707 53 342 1.7 3.5 0.00 0.00 0.00 74 1007.6
20260503190707 53 330 2.6 4.3 0.00 0.00 0.00 71 1007.6
20260503184707 55 355 4.3 6.1 0.00 0.00 0.00 62 1007.5
20260503182707 55 15 1.7 3.5 0.00 0.00 0.00 67 1007.5
20260503180707 56 57 1.7 2.6 0.00 0.00 0.00 60 1007.4
20260503174707 57 28 2.6 5.2 0.00 0.00 0.00 55 1007.3
20260503172713 58 40 2.6 4.3 0.00 0.00 0.00 53 1007.4
20260503170707 58 341 1.7 3.5 0.00 0.00 0.00 53 1007.3
20260503150706 60 340 7.0 10.4 0.00 0.00 0.00 48 1007.4
20260503130706 62 301 8.7 13.0 0.00 0.00 0.00 46 1007.4
20260503110706 58 309 9.6 13.0 0.00 0.00 0.00 57 1007.6
20260503080705 54 276 2.6 5.2 0.00 0.00 0.00 65 1007.3
20260503072705 51 272 4.3 6.1 0.00 0.00 0.00 70 1007.0
20260503070705 51 288 6.1 7.0 0.00 0.00 0.00 72 1007.1
20260503054705 49 329 6.1 8.7 0.00 0.00 0.00 69 1006.2
20260503052705 49 296 5.2 7.8 0.00 0.00 0.00 73 1006.0
20260503050704 46 286 4.3 7.0 0.00 0.00 0.00 79 1005.9
20260503044704 45 283 5.2 7.8 0.00 0.00 0.00 82 1006.0
20260503042704 44 272 6.1 8.7 0.00 0.00 0.00 84 1005.9
20260503040704 44 285 5.2 6.1 0.00 0.00 0.00 85 1005.6
20260503034704 43 243 3.5 6.1 0.00 0.00 0.00 88 1005.3
20260503032704 42 244 5.2 6.1 0.00 0.00 0.00 89 1005.7
20260503030704 41 233 4.3 6.1 0.00 0.00 0.00 90 1005.6
20260503024704 42 241 3.5 4.3 0.00 0.00 0.00 87 1005.5
20260503022704 42 270 4.3 6.1 0.00 0.00 0.00 86 1005.7
20260503020704 43 218 7.0 7.8 0.00 0.00 0.00 85 1005.5
20260503014704 42 220 4.3 6.1 0.00 0.00 0.00 85 1005.5
20260503012704 42 239 5.2 6.1 0.00 0.00 0.00 84 1005.9
20260503010704 44 232 5.2 7.8 0.00 0.00 0.00 82 1005.7
20260503004704 44 212 6.1 8.7 0.00 0.00 0.00 80 1005.6
20260503002704 44 221 7.0 8.7 0.00 0.00 0.00 80 1006.0
20260503000704 44 224 7.0 8.7 0.00 0.00 0.00 80 1006.2
20260502234703 45 222 7.0 10.4 0.00 0.00 0.00 79 1006.5
20260502232703 45 223 7.0 9.6 0.00 0.00 0.00 79 1006.6
20260502230703 46 211 7.0 8.7 0.00 0.00 0.00 75 1006.7
20260502224704 46 207 7.0 8.7 0.00 0.00 0.00 74 1006.9
20260502222704 46 203 7.0 11.3 0.00 0.00 0.00 75 1007.0
20260502220703 46 187 6.1 7.8 0.00 0.00 0.00 75 1007.3
20260502214703 46 190 5.2 7.8 0.00 0.00 0.00 75 1007.5